Terminal Aerodrome Forecast
Issued by NWS

Home | Current Version | Previous Version | Text Only | Print | Product List | Glossary On
Versions: 1 2 3 4 5 6 7 8 9 10 11 12 13 14 15 16 17 18 19 20 21 22 23 24 25 26 27 28 29 30
000
FTUS43 KDDC 221700
TAFGCK
TAF
KGCK 221736Z 2218/2318 VRB05KT P6SM VCTS SCT100CB
     FM222300 17015G22KT P6SM VCTS BKN100CB
     FM230100 17015KT P6SM SCT100=

USA.gov is the U.S. government's official web portal to all federal, state and local government web resources and services.